Home > Weather > Johor Bahru > Past weeks

Flag for Malaysia Weather for the Past 2 Weeks in Johor Bahru, Malaysia

Now
79 °F

Light rain. Partly cloudy.


Feels Like: 83 °F
Forecast: 78 / 83 °F
Wind: 1 mph from Northwest

Location: Johore Bharu / Senai

Current Time: Feb 7, 2016 at 5:00:40 AM

Latest Report: Feb 7, 2016 at 4:00 AM


Visibility: 6 mi

Pressure: 29.77 "Hg

Humidity: 94%

Dew point: 77 °F

Location of Johor BahruLocation

Historic Weather in Johor Bahru — Graph

°F

Johor Bahru Temperature Yesterday

Maximum temperature yesterday: 90 °F (at 12:00 PM)
Minimum temperature yesterday: 79 °F (at 3:00 AM)
Average temperature yesterday: 83 °F

High & Low Weather Summary for the Past Weeks

 TemperatureHumidityPressure
High93 °F (Jan 23, 2:00 PM)100% (Jan 23, 6:00 AM)29.95 "Hg (Jan 23, 6:00 AM)
Low75 °F (Jan 26, 6:00 AM)59% (Jan 30, 4:00 PM)29.68 "Hg (Feb 5, 4:00 PM)
Average82 °F85%29.84 "Hg
* Reported Jan 23 4:00 AM — Feb 7 4:00 AM, Johor Bahru, Weather by CustomWeather, © 2016

Note: Actual official high and low records may vary slightly from our data, if they occured in-between our weather recording intervals... More about our weather records

Advertising

Johor Bahru Weather History for the Previous 24 Hours

 ConditionsComfort  
Time TempWeatherWind HumidityBarometerVisibility
4:00 AM
Sun, Feb 7
79 °FLight rain. Partly cloudy.1 mph94%29.77 "Hg6 mi
3:00 AM79 °FThunderstorms. Partly cloudy.2 mph94%29.80 "HgN/A
2:00 AM79 °FPartly cloudy.3 mph94%29.83 "HgN/A
1:00 AM79 °FPassing clouds.3 mph100%29.86 "HgN/A
12:00 AM79 °FPassing clouds.3 mph94%29.86 "HgN/A
11:00 PM
Sat, Feb 6
79 °FPartly cloudy.2 mph94%29.83 "HgN/A
10:00 PM79 °FLight rain. Partly cloudy.3 mph100%29.83 "HgN/A
9:00 PM79 °FLight rain. Partly cloudy.5 mph100%29.83 "HgN/A
8:00 PM81 °FPassing clouds.6 mph89%29.80 "HgN/A
7:00 PM82 °FLight rain. Partly sunny.8 mph89%29.77 "HgN/A
6:00 PM86 °FPartly sunny.8 mph79%29.74 "HgN/A
5:00 PM88 °FBroken clouds.15 mph75%29.74 "HgN/A
4:00 PM90 °FBroken clouds.14 mph71%29.74 "HgN/A
3:00 PM90 °FBroken clouds.13 mph75%29.74 "HgN/A
2:00 PM88 °FBroken clouds.9 mph79%29.77 "HgN/A
1:00 PM88 °FSprinkles. Broken clouds.6 mph79%29.80 "HgN/A
12:00 PM90 °FBroken clouds.7 mph75%29.83 "HgN/A
11:00 AM88 °FBroken clouds.10 mph75%29.83 "HgN/A
10:00 AM86 °FBroken clouds.9 mph84%29.83 "HgN/A
9:00 AM82 °FPartly sunny.6 mph89%29.83 "HgN/A
8:00 AM79 °FPartly sunny.No wind94%29.80 "HgN/A
7:00 AM79 °FPassing clouds.No wind94%29.77 "Hg5 mi
6:00 AM79 °FPassing clouds.3 mph94%29.74 "Hg4 mi
5:00 AM79 °FPartly cloudy.No wind100%29.74 "Hg4 mi
Weather by CustomWeather, © 2016

See weather overviewHow to use our weather pages